Time,TemperatureF,DewpointF,PressureIn,WindDirection,WindDirectionDegrees,WindSpeedMPH,WindSpeedGustMPH,Humidity,HourlyPrecipIn,Conditions,Clouds,dailyrainin,SoftwareType,DateUTC
2013-05-30 00:01:00,73.9,60.9,30.16,South,180,0.0,0.0,64,0.00,,,0.00,WUHU21523XXSP,2013-05-30 04:01:00,
2013-05-30 00:06:00,73.9,60.9,30.17,SSW,202,0.4,0.4,64,0.00,,,0.00,WUHU21523XXSP,2013-05-30 04:06:00,
2013-05-30 00:11:00,73.9,60.9,30.17,SSW,202,0.0,0.4,64,0.00,,,0.00,WUHU21523XXSP,2013-05-30 04:11:00,
2013-05-30 00:17:00,73.8,60.8,30.17,North,0,0.0,0.4,64,0.00,,,0.00,WUHU21523XXSP,2013-05-30 04:17:00,
2013-05-30 00:26:00,73.8,60.8,30.17,NE,45,0.0,2.5,64,0.00,,,0.00,WUHU21523XXSP,2013-05-30 04:26:00,
2013-05-30 00:31:00,73.8,60.8,30.17,SW,225,0.0,0.0,64,0.00,,,0.00,WUHU21523XXSP,2013-05-30 04:31:00,
2013-05-30 00:36:00,73.6,60.8,30.17,South,180,0.0,0.0,63,0.00,,,0.00,WUHU21523XXSP,2013-05-30 04:36:00,
2013-05-30 00:41:00,73.8,60.3,30.17,SW,225,0.0,0.0,63,0.00,,,0.00,WUHU21523XXSP,2013-05-30 04:41:00,
2013-05-30 00:46:00,73.8,60.3,30.17,South,180,0.7,0.7,63,0.00,,,0.00,WUHU21523XXSP,2013-05-30 04:46:00,
2013-05-30 00:51:00,73.8,60.3,30.17,SSW,202,0.0,0.7,63,0.00,,,0.00,WUHU21523XXSP,2013-05-30 04:51:00,
2013-05-30 00:56:00,73.8,60.3,30.18,SSW,202,0.0,0.0,63,0.00,,,0.00,WUHU21523XXSP,2013-05-30 04:56:00,
2013-05-30 01:01:00,73.6,60.2,30.17,SSW,202,0.0,0.0,63,0.00,,,0.00,WUHU21523XXSP,2013-05-30 05:01:00,
2013-05-30 01:06:00,73.4,60.4,30.17,SSW,202,0.0,0.0,64,0.00,,,0.00,WUHU21523XXSP,2013-05-30 05:06:00,
2013-05-30 01:11:00,73.2,60.3,30.17,SSW,202,0.0,0.0,64,0.00,,,0.00,WUHU21523XXSP,2013-05-30 05:11:00,
2013-05-30 01:16:00,73.0,60.1,30.17,SSW,202,0.0,0.0,64,0.00,,,0.00,WUHU21523XXSP,2013-05-30 05:16:00,
2013-05-30 01:22:00,72.9,60.4,30.17,SSW,202,0.0,0.0,65,0.00,,,0.00,WUHU21523XXSP,2013-05-30 05:22:00,
2013-05-30 01:31:00,72.5,60.0,30.17,SSW,202,19.0,19.0,65,0.00,,,0.00,WUHU21523XXSP,2013-05-30 05:31:00,
2013-05-30 01:36:00,72.3,60.3,30.18,SSW,202,0.0,19.0,66,0.00,,,0.00,WUHU21523XXSP,2013-05-30 05:36:00,
2013-05-30 01:41:00,72.1,60.1,30.17,SSW,202,0.0,0.0,66,0.00,,,0.00,WUHU21523XXSP,2013-05-30 05:41:00,
2013-05-30 01:46:00,72.0,60.4,30.17,SSW,202,0.0,0.0,67,0.00,,,0.00,WUHU21523XXSP,2013-05-30 05:46:00,
2013-05-30 01:51:00,71.8,60.2,30.18,SSW,202,0.0,0.0,67,0.00,,,0.00,WUHU21523XXSP,2013-05-30 05:51:00,
2013-05-30 01:56:00,71.6,60.0,30.17,SSW,202,14.8,14.8,67,0.00,,,0.00,WUHU21523XXSP,2013-05-30 05:56:00,
2013-05-30 02:01:00,71.4,59.9,30.18,SSW,202,14.8,14.8,67,0.00,,,0.00,WUHU21523XXSP,2013-05-30 06:01:00,
2013-05-30 02:06:00,71.4,60.3,30.18,SSW,202,0.0,14.8,68,0.00,,,0.00,WUHU21523XXSP,2013-05-30 06:06:00,
2013-05-30 02:11:00,71.2,60.1,30.18,SSW,202,0.0,0.0,68,0.00,,,0.00,WUHU21523XXSP,2013-05-30 06:11:00,
2013-05-30 02:16:00,70.9,59.8,30.18,SSW,202,19.9,19.9,68,0.00,,,0.00,WUHU21523XXSP,2013-05-30 06:16:00,
2013-05-30 02:21:00,70.9,59.8,30.17,SSW,202,19.0,19.9,68,0.00,,,0.00,WUHU21523XXSP,2013-05-30 06:21:00,
2013-05-30 02:26:00,70.5,59.8,30.17,SSW,202,0.0,19.0,69,0.00,,,0.00,WUHU21523XXSP,2013-05-30 06:26:00,
2013-05-30 02:31:00,70.5,59.8,30.17,SSW,202,0.0,0.0,69,0.00,,,0.00,WUHU21523XXSP,2013-05-30 06:31:00,
2013-05-30 02:36:00,70.3,59.6,30.18,SSW,202,0.0,16.1,69,0.00,,,0.00,WUHU21523XXSP,2013-05-30 06:36:00,
2013-05-30 02:41:00,70.2,59.9,30.18,SSW,202,10.7,16.1,70,0.00,,,0.00,WUHU21523XXSP,2013-05-30 06:41:00,
2013-05-30 02:46:00,70.0,59.7,30.17,SSW,202,18.3,18.3,70,0.00,,,0.00,WUHU21523XXSP,2013-05-30 06:46:00,
2013-05-30 02:51:00,69.6,59.4,30.17,SSW,202,10.5,18.3,70,0.00,,,0.00,WUHU21523XXSP,2013-05-30 06:51:00,
2013-05-30 02:56:00,69.6,59.4,30.18,SSW,202,0.0,11.0,70,0.00,,,0.00,WUHU21523XXSP,2013-05-30 06:56:00,
2013-05-30 03:01:00,69.4,59.6,30.18,SSW,202,0.0,10.5,71,0.00,,,0.00,WUHU21523XXSP,2013-05-30 07:01:00,
2013-05-30 03:06:00,69.1,59.3,30.17,SSW,202,0.0,0.0,71,0.00,,,0.00,WUHU21523XXSP,2013-05-30 07:06:00,
2013-05-30 03:11:00,69.1,59.3,30.17,SSW,202,0.0,0.0,71,0.00,,,0.00,WUHU21523XXSP,2013-05-30 07:11:00,
2013-05-30 03:16:00,68.9,59.5,30.18,SSW,202,0.0,0.0,72,0.00,,,0.00,WUHU21523XXSP,2013-05-30 07:16:00,
2013-05-30 03:21:00,68.7,59.3,30.18,SSW,202,0.0,0.0,72,0.00,,,0.00,WUHU21523XXSP,2013-05-30 07:21:00,
2013-05-30 03:26:00,68.5,59.2,30.18,SSW,202,0.0,0.0,72,0.00,,,0.00,WUHU21523XXSP,2013-05-30 07:26:00,
2013-05-30 03:31:00,68.5,59.2,30.18,SSW,202,0.0,0.0,72,0.00,,,0.00,WUHU21523XXSP,2013-05-30 07:31:00,
2013-05-30 03:36:00,68.2,59.2,30.18,SSW,202,0.0,0.0,73,0.00,,,0.00,WUHU21523XXSP,2013-05-30 07:36:00,
2013-05-30 03:41:00,68.2,59.2,30.18,SSW,202,12.8,12.8,73,0.00,,,0.00,WUHU21523XXSP,2013-05-30 07:41:00,
2013-05-30 03:46:00,67.8,58.9,30.19,SSW,202,0.0,12.8,73,0.00,,,0.00,WUHU21523XXSP,2013-05-30 07:46:00,
2013-05-30 03:51:00,67.8,58.9,30.19,SSW,202,0.0,0.0,73,0.00,,,0.00,WUHU21523XXSP,2013-05-30 07:51:00,
2013-05-30 03:56:00,67.6,59.1,30.19,SSW,202,7.4,7.4,74,0.00,,,0.00,WUHU21523XXSP,2013-05-30 07:56:00,
2013-05-30 04:01:00,67.6,59.1,30.18,SSW,202,0.0,7.4,74,0.00,,,0.00,WUHU21523XXSP,2013-05-30 08:01:00,
2013-05-30 04:06:00,67.3,58.7,30.18,SSW,202,0.0,0.0,74,0.00,,,0.00,WUHU21523XXSP,2013-05-30 08:06:00,
2013-05-30 04:11:00,67.1,58.9,30.18,SSW,202,0.0,0.0,75,0.00,,,0.00,WUHU21523XXSP,2013-05-30 08:11:00,
2013-05-30 04:16:00,66.9,58.7,30.18,SSW,202,0.0,0.0,75,0.00,,,0.00,WUHU21523XXSP,2013-05-30 08:16:00,
2013-05-30 04:21:00,66.9,58.7,30.19,SSW,202,0.0,0.0,75,0.00,,,0.00,WUHU21523XXSP,2013-05-30 08:21:00,
2013-05-30 04:26:00,66.7,58.5,30.19,SSW,202,0.0,0.0,75,0.00,,,0.00,WUHU21523XXSP,2013-05-30 08:26:00,
2013-05-30 04:31:00,66.7,58.5,30.19,SSW,202,0.0,0.0,75,0.00,,,0.00,WUHU21523XXSP,2013-05-30 08:31:00,
2013-05-30 04:36:00,66.6,58.4,30.19,SSW,202,0.0,0.0,75,0.00,,,0.00,WUHU21523XXSP,2013-05-30 08:36:00,
2013-05-30 04:41:00,66.4,58.6,30.19,SSW,202,0.0,0.0,76,0.00,,,0.00,WUHU21523XXSP,2013-05-30 08:41:00,
2013-05-30 04:46:00,66.4,58.6,30.20,SSW,202,0.0,0.0,76,0.00,,,0.00,WUHU21523XXSP,2013-05-30 08:46:00,
2013-05-30 04:51:00,66.0,58.2,30.19,SSW,202,0.0,0.0,76,0.00,,,0.00,WUHU21523XXSP,2013-05-30 08:51:00,
2013-05-30 04:56:00,66.0,58.2,30.20,SSW,202,0.0,0.0,76,0.00,,,0.00,WUHU21523XXSP,2013-05-30 08:56:00,
2013-05-30 05:01:00,65.8,58.6,30.20,SSW,202,0.0,0.0,77,0.00,,,0.00,WUHU21523XXSP,2013-05-30 09:01:00,
2013-05-30 05:06:00,65.7,58.2,30.20,SSW,202,0.0,0.0,77,0.00,,,0.00,WUHU21523XXSP,2013-05-30 09:06:00,
2013-05-30 05:11:00,65.7,58.2,30.20,SSW,202,0.0,0.0,77,0.00,,,0.00,WUHU21523XXSP,2013-05-30 09:11:00,
2013-05-30 05:16:00,65.5,58.1,30.20,SSW,202,0.0,0.0,77,0.00,,,0.00,WUHU21523XXSP,2013-05-30 09:16:00,
2013-05-30 05:21:00,65.3,57.9,30.20,SSW,202,0.0,0.0,77,0.00,,,0.00,WUHU21523XXSP,2013-05-30 09:21:00,
2013-05-30 05:26:00,65.3,57.9,30.20,SSW,202,0.0,0.0,77,0.00,,,0.00,WUHU21523XXSP,2013-05-30 09:26:00,
2013-05-30 05:31:00,65.1,58.1,30.20,SSW,202,0.0,0.0,78,0.00,,,0.00,WUHU21523XXSP,2013-05-30 09:31:00,
2013-05-30 05:36:00,64.9,57.9,30.20,SSW,202,0.0,0.0,78,0.00,,,0.00,WUHU21523XXSP,2013-05-30 09:36:00,
2013-05-30 05:41:00,64.9,57.9,30.20,SSW,202,0.0,0.0,78,0.00,,,0.00,WUHU21523XXSP,2013-05-30 09:41:00,
2013-05-30 05:46:00,64.8,57.7,30.21,SSW,202,0.0,0.0,78,0.00,,,0.00,WUHU21523XXSP,2013-05-30 09:46:00,
2013-05-30 05:51:00,64.8,57.7,30.21,SSW,202,0.0,0.0,78,0.00,,,0.00,WUHU21523XXSP,2013-05-30 09:51:00,
2013-05-30 05:56:00,64.6,57.5,30.21,SSW,202,0.0,0.0,78,0.00,,,0.00,WUHU21523XXSP,2013-05-30 09:56:00,
2013-05-30 06:01:00,64.6,57.9,30.21,SSW,202,0.0,0.0,79,0.00,,,0.00,WUHU21523XXSP,2013-05-30 10:01:00,
2013-05-30 06:06:00,64.2,57.6,30.21,SSW,202,0.0,0.0,79,0.00,,,0.00,WUHU21523XXSP,2013-05-30 10:06:00,
2013-05-30 06:11:00,64.2,57.6,30.21,SSW,202,0.0,0.0,79,0.00,,,0.00,WUHU21523XXSP,2013-05-30 10:11:00,
2013-05-30 06:16:00,64.2,57.2,30.21,SSW,202,0.0,0.0,78,0.00,,,0.00,WUHU21523XXSP,2013-05-30 10:16:00,
2013-05-30 06:21:00,64.0,57.4,30.22,SSW,202,0.0,0.0,79,0.00,,,0.00,WUHU21523XXSP,2013-05-30 10:21:00,
2013-05-30 06:26:00,64.0,57.4,30.22,SSW,202,0.0,0.0,79,0.00,,,0.00,WUHU21523XXSP,2013-05-30 10:26:00,
2013-05-30 06:31:00,64.0,57.4,30.22,SSW,202,0.0,0.0,79,0.00,,,0.00,WUHU21523XXSP,2013-05-30 10:31:00,
2013-05-30 06:36:00,64.0,57.4,30.22,SSW,202,0.0,0.0,79,0.00,,,0.00,WUHU21523XXSP,2013-05-30 10:36:00,
2013-05-30 06:41:00,63.7,57.0,30.22,SSW,202,0.0,0.0,79,0.00,,,0.00,WUHU21523XXSP,2013-05-30 10:41:00,
2013-05-30 06:46:00,63.7,57.0,30.22,SSW,202,0.0,0.0,79,0.00,,,0.00,WUHU21523XXSP,2013-05-30 10:46:00,
2013-05-30 06:51:00,63.7,57.4,30.22,SSW,202,0.0,0.0,80,0.00,,,0.00,WUHU21523XXSP,2013-05-30 10:51:00,
2013-05-30 06:56:00,63.7,57.4,30.22,SSW,202,0.0,0.0,80,0.00,,,0.00,WUHU21523XXSP,2013-05-30 10:56:00,
2013-05-30 07:01:00,63.7,57.4,30.22,SSW,202,0.0,0.0,80,0.00,,,0.00,WUHU21523XXSP,2013-05-30 11:01:00,
2013-05-30 07:06:00,63.9,57.6,30.22,SSW,202,0.0,0.0,80,0.00,,,0.00,WUHU21523XXSP,2013-05-30 11:06:00,
2013-05-30 07:11:00,63.7,57.4,30.22,SSW,202,0.0,0.0,80,0.00,,,0.00,WUHU21523XXSP,2013-05-30 11:11:00,
2013-05-30 07:16:00,64.0,58.1,30.22,SSW,202,0.0,0.0,81,0.00,,,0.00,WUHU21523XXSP,2013-05-30 11:16:00,
2013-05-30 07:21:00,64.0,58.1,30.22,SSW,202,0.0,0.0,81,0.00,,,0.00,WUHU21523XXSP,2013-05-30 11:21:00,
2013-05-30 07:26:00,64.0,58.1,30.22,SSW,202,8.1,8.1,81,0.00,,,0.00,WUHU21523XXSP,2013-05-30 11:26:00,
2013-05-30 07:31:00,64.2,58.3,30.22,SSW,202,0.0,8.1,81,0.00,,,0.00,WUHU21523XXSP,2013-05-30 11:31:00,
2013-05-30 07:36:00,64.2,58.3,30.22,SSW,202,0.0,0.0,81,0.00,,,0.00,WUHU21523XXSP,2013-05-30 11:36:00,
2013-05-30 07:41:00,64.2,58.3,30.22,SSW,202,0.0,0.0,81,0.00,,,0.00,WUHU21523XXSP,2013-05-30 11:41:00,
2013-05-30 07:46:00,64.6,58.6,30.22,SSW,202,0.0,0.0,81,0.00,,,0.00,WUHU21523XXSP,2013-05-30 11:46:00,
2013-05-30 07:51:00,64.6,58.6,30.22,SSW,202,0.0,0.0,81,0.00,,,0.00,WUHU21523XXSP,2013-05-30 11:51:00,
2013-05-30 07:56:00,64.6,58.6,30.22,SSW,202,0.0,0.0,81,0.00,,,0.00,WUHU21523XXSP,2013-05-30 11:56:00,
2013-05-30 08:01:00,64.8,58.8,30.22,SSW,202,0.0,0.0,81,0.00,,,0.00,WUHU21523XXSP,2013-05-30 12:01:00,
2013-05-30 08:06:00,64.9,59.0,30.22,SSW,202,0.0,0.0,81,0.00,,,0.00,WUHU21523XXSP,2013-05-30 12:06:00,
2013-05-30 08:11:00,65.1,59.1,30.23,SSW,202,0.0,0.0,81,0.00,,,0.00,WUHU21523XXSP,2013-05-30 12:11:00,
2013-05-30 08:16:00,65.3,59.3,30.23,SSW,202,0.0,0.0,81,0.00,,,0.00,WUHU21523XXSP,2013-05-30 12:16:00,
2013-05-30 08:21:00,65.5,59.5,30.23,SSW,202,15.7,15.7,81,0.00,,,0.00,WUHU21523XXSP,2013-05-30 12:21:00,
2013-05-30 08:26:00,65.7,59.7,30.23,SSW,202,0.0,15.7,81,0.00,,,0.00,WUHU21523XXSP,2013-05-30 12:26:00,
2013-05-30 08:31:00,65.8,59.9,30.23,SSW,202,25.3,25.3,81,0.00,,,0.00,WUHU21523XXSP,2013-05-30 12:31:00,
2013-05-30 08:36:00,66.0,60.0,30.23,SSW,202,0.0,25.3,81,0.00,,,0.00,WUHU21523XXSP,2013-05-30 12:36:00,
2013-05-30 08:41:00,66.4,60.4,30.23,SSW,202,0.0,0.0,81,0.00,,,0.00,WUHU21523XXSP,2013-05-30 12:41:00,
2013-05-30 08:46:00,66.6,60.6,30.23,SSW,202,0.0,0.0,81,0.00,,,0.00,WUHU21523XXSP,2013-05-30 12:46:00,
2013-05-30 08:51:00,66.7,60.8,30.23,SSW,202,0.0,0.0,81,0.00,,,0.00,WUHU21523XXSP,2013-05-30 12:51:00,
2013-05-30 08:56:00,67.3,61.3,30.23,SSW,202,0.0,0.0,81,0.00,,,0.00,WUHU21523XXSP,2013-05-30 12:56:00,
2013-05-30 09:01:00,67.6,61.7,30.23,SSW,202,0.0,0.0,81,0.00,,,0.00,WUHU21523XXSP,2013-05-30 13:01:00,
2013-05-30 09:06:00,67.8,61.8,30.23,SSW,202,0.0,0.0,81,0.00,,,0.00,WUHU21523XXSP,2013-05-30 13:06:00,
2013-05-30 09:11:00,68.2,62.2,30.23,SSW,202,0.0,0.0,81,0.00,,,0.00,WUHU21523XXSP,2013-05-30 13:11:00,
2013-05-30 09:16:00,68.5,62.5,30.24,NW,315,0.0,0.0,81,0.00,,,0.00,WUHU21523XXSP,2013-05-30 13:16:00,
2013-05-30 09:21:00,68.7,62.7,30.24,NW,315,0.0,0.0,81,0.00,,,0.00,WUHU21523XXSP,2013-05-30 13:21:00,
2013-05-30 09:26:00,69.3,62.8,30.24,NW,315,0.0,0.0,80,0.00,,,0.00,WUHU21523XXSP,2013-05-30 13:26:00,
2013-05-30 09:31:00,69.6,63.2,30.23,NW,315,0.0,0.0,80,0.00,,,0.00,WUHU21523XXSP,2013-05-30 13:31:00,
2013-05-30 09:36:00,70.0,63.1,30.24,NW,315,0.0,0.0,79,0.00,,,0.00,WUHU21523XXSP,2013-05-30 13:36:00,
2013-05-30 09:41:00,70.3,63.1,30.24,WSW,247,0.0,0.0,78,0.00,,,0.00,WUHU21523XXSP,2013-05-30 13:41:00,
2013-05-30 09:46:00,70.9,63.6,30.24,NNW,337,0.0,0.0,78,0.00,,,0.00,WUHU21523XXSP,2013-05-30 13:46:00,
2013-05-30 09:51:00,71.2,64.0,30.25,East,90,0.7,0.7,78,0.00,,,0.00,WUHU21523XXSP,2013-05-30 13:51:00,
2013-05-30 09:56:00,71.8,64.2,30.24,ENE,67,0.0,0.7,77,0.00,,,0.00,WUHU21523XXSP,2013-05-30 13:56:00,
2013-05-30 10:01:00,72.1,64.5,30.24,NE,45,2.5,2.5,77,0.00,,,0.00,WUHU21523XXSP,2013-05-30 14:01:00,
2013-05-30 10:06:00,72.3,64.3,30.24,NE,45,0.0,2.5,76,0.00,,,0.00,WUHU21523XXSP,2013-05-30 14:06:00,
2013-05-30 10:11:00,72.9,64.9,30.24,NE,45,0.0,0.0,76,0.00,,,0.00,WUHU21523XXSP,2013-05-30 14:11:00,
2013-05-30 10:16:00,73.2,64.8,30.24,ENE,67,1.1,1.1,75,0.00,,,0.00,WUHU21523XXSP,2013-05-30 14:16:00,
2013-05-30 10:21:00,73.6,65.2,30.23,NE,45,2.9,2.9,75,0.00,,,0.00,WUHU21523XXSP,2013-05-30 14:21:00,
2013-05-30 10:26:00,73.9,65.2,30.23,NE,45,0.0,2.9,74,0.00,,,0.00,WUHU21523XXSP,2013-05-30 14:26:00,
2013-05-30 10:31:00,74.1,65.3,30.23,SSW,202,0.7,0.7,74,0.00,,,0.00,WUHU21523XXSP,2013-05-30 14:31:00,
2013-05-30 10:36:00,74.3,64.7,30.23,SSW,202,0.0,0.7,72,0.00,,,0.00,WUHU21523XXSP,2013-05-30 14:36:00,
2013-05-30 10:41:00,74.8,65.2,30.23,South,180,0.0,0.0,72,0.00,,,0.00,WUHU21523XXSP,2013-05-30 14:41:00,
2013-05-30 10:46:00,75.4,65.7,30.23,South,180,0.0,0.0,72,0.00,,,0.00,WUHU21523XXSP,2013-05-30 14:46:00,
2013-05-30 10:51:00,75.7,66.1,30.23,SSW,202,3.4,3.4,72,0.00,,,0.00,WUHU21523XXSP,2013-05-30 14:51:00,
2013-05-30 10:56:00,76.3,66.2,30.23,South,180,0.0,3.4,71,0.00,,,0.00,WUHU21523XXSP,2013-05-30 14:56:00,
2013-05-30 11:01:00,76.6,66.2,30.23,South,180,0.0,0.0,70,0.00,,,0.00,WUHU21523XXSP,2013-05-30 15:01:00,
2013-05-30 11:06:00,76.8,66.4,30.23,South,180,0.0,0.0,70,0.00,,,0.00,WUHU21523XXSP,2013-05-30 15:06:00,
2013-05-30 11:11:00,77.2,66.7,30.24,SW,225,0.0,1.8,70,0.00,,,0.00,WUHU21523XXSP,2013-05-30 15:11:00,
2013-05-30 11:16:00,77.5,66.4,30.23,SW,225,1.3,1.8,69,0.00,,,0.00,WUHU21523XXSP,2013-05-30 15:16:00,
2013-05-30 11:21:00,77.7,66.8,30.23,SSW,202,0.0,1.3,69,0.00,,,0.00,WUHU21523XXSP,2013-05-30 15:21:00,
2013-05-30 11:26:00,78.1,66.7,30.23,SSW,202,2.2,2.2,68,0.00,,,0.00,WUHU21523XXSP,2013-05-30 15:26:00,
2013-05-30 11:31:00,78.4,67.0,30.23,North,0,2.2,2.2,68,0.00,,,0.00,WUHU21523XXSP,2013-05-30 15:31:00,
2013-05-30 11:36:00,78.6,67.1,30.23,SSW,202,0.0,2.2,68,0.00,,,0.00,WUHU21523XXSP,2013-05-30 15:36:00,
2013-05-30 11:41:00,79.0,66.6,30.23,SSW,202,2.7,2.7,66,0.00,,,0.00,WUHU21523XXSP,2013-05-30 15:41:00,
2013-05-30 11:46:00,79.2,66.4,30.22,NNW,337,0.0,2.7,65,0.00,,,0.00,WUHU21523XXSP,2013-05-30 15:46:00,
2013-05-30 11:51:00,79.3,67.0,30.22,South,180,2.0,2.0,66,0.00,,,0.00,WUHU21523XXSP,2013-05-30 15:51:00,
2013-05-30 11:56:00,79.7,67.3,30.22,South,180,1.6,2.0,66,0.00,,,0.00,WUHU21523XXSP,2013-05-30 15:56:00,
2013-05-30 12:01:00,80.1,67.7,30.22,SSE,157,0.0,1.6,66,0.00,,,0.00,WUHU21523XXSP,2013-05-30 16:01:00,
2013-05-30 12:06:00,80.4,68.0,30.22,SSE,157,0.0,0.0,66,0.00,,,0.00,WUHU21523XXSP,2013-05-30 16:06:00,
2013-05-30 12:11:00,80.8,68.3,30.22,South,180,1.6,1.6,66,0.00,,,0.00,WUHU21523XXSP,2013-05-30 16:11:00,
2013-05-30 12:16:00,81.1,68.7,30.22,SSE,157,0.0,1.6,66,0.00,,,0.00,WUHU21523XXSP,2013-05-30 16:16:00,
2013-05-30 12:22:00,81.3,68.8,30.22,SSW,202,0.0,0.0,66,0.00,,,0.00,WUHU21523XXSP,2013-05-30 16:22:00,
2013-05-30 12:27:00,81.7,68.7,30.21,NNE,22,0.9,3.6,65,0.00,,,0.00,WUHU21523XXSP,2013-05-30 16:27:00,
2013-05-30 12:32:00,81.9,68.9,30.21,SSW,202,3.4,3.6,65,0.00,,,0.00,WUHU21523XXSP,2013-05-30 16:32:00,
2013-05-30 12:37:00,82.2,69.2,30.21,NE,45,0.0,3.4,65,0.00,,,0.00,WUHU21523XXSP,2013-05-30 16:37:00,
2013-05-30 12:42:00,82.6,69.5,30.21,SSW,202,4.0,4.0,65,0.00,,,0.00,WUHU21523XXSP,2013-05-30 16:42:00,
2013-05-30 12:52:00,83.1,70.5,30.20,ENE,67,1.1,1.1,66,0.00,,,0.00,WUHU21523XXSP,2013-05-30 16:52:00,
2013-05-30 12:57:00,83.3,69.8,30.20,SSW,193,2.5,2.9,64,0.00,,,0.00,WUHU21523XXSP,2013-05-30 16:57:00,
2013-05-30 13:02:00,83.7,70.2,30.20,SSE,168,2.3,2.9,64,0.00,,,0.00,WUHU21523XXSP,2013-05-30 17:02:00,
2013-05-30 13:07:00,84.0,70.5,30.20,SSW,202,2.9,2.9,64,0.00,,,0.00,WUHU21523XXSP,2013-05-30 17:07:00,
2013-05-30 13:12:00,84.2,69.8,30.20,WSW,247,0.0,2.9,62,0.00,,,0.00,WUHU21523XXSP,2013-05-30 17:12:00,
2013-05-30 13:17:00,84.4,70.0,30.20,WSW,247,2.0,2.9,62,0.00,,,0.00,WUHU21523XXSP,2013-05-30 17:17:00,
2013-05-30 13:22:00,84.7,69.8,30.20,South,180,0.0,2.0,61,0.00,,,0.00,WUHU21523XXSP,2013-05-30 17:22:00,
2013-05-30 13:27:00,84.9,70.0,30.19,ENE,67,7.2,7.2,61,0.00,,,0.00,WUHU21523XXSP,2013-05-30 17:27:00,
2013-05-30 13:32:00,85.3,70.8,30.19,ENE,67,0.0,7.2,62,0.00,,,0.00,WUHU21523XXSP,2013-05-30 17:32:00,
2013-05-30 13:37:00,85.5,70.5,30.19,NE,45,2.7,2.7,61,0.00,,,0.00,WUHU21523XXSP,2013-05-30 17:37:00,
2013-05-30 13:42:00,85.6,70.6,30.19,SSW,202,0.0,2.7,61,0.00,,,0.00,WUHU21523XXSP,2013-05-30 17:42:00,
2013-05-30 13:47:00,86.2,70.2,30.19,South,180,3.6,3.6,59,0.00,,,0.00,WUHU21523XXSP,2013-05-30 17:47:00,
2013-05-30 13:52:00,86.5,70.5,30.18,WSW,247,1.3,3.6,59,0.00,,,0.00,WUHU21523XXSP,2013-05-30 17:52:00,
2013-05-30 13:57:00,86.7,70.2,30.19,South,180,2.5,2.9,58,0.00,,,0.00,WUHU21523XXSP,2013-05-30 17:57:00,
2013-05-30 14:02:00,86.9,70.4,30.18,NE,40,2.0,3.1,58,0.00,,,0.00,WUHU21523XXSP,2013-05-30 18:02:00,
2013-05-30 14:07:00,87.4,70.3,30.18,SSW,202,4.0,4.0,57,0.00,,,0.00,WUHU21523XXSP,2013-05-30 18:07:00,
2013-05-30 14:12:00,87.4,69.8,30.18,ENE,67,0.0,4.0,56,0.00,,,0.00,WUHU21523XXSP,2013-05-30 18:12:00,
2013-05-30 14:17:00,87.6,69.4,30.18,SSE,157,0.0,4.0,55,0.00,,,0.00,WUHU21523XXSP,2013-05-30 18:17:00,
2013-05-30 14:22:00,87.8,70.2,30.18,NNE,22,2.7,2.7,56,0.00,,,0.00,WUHU21523XXSP,2013-05-30 18:22:00,
2013-05-30 14:27:00,87.8,69.6,30.17,SW,225,0.0,6.5,55,0.00,,,0.00,WUHU21523XXSP,2013-05-30 18:27:00,
2013-05-30 14:32:00,88.0,70.3,30.17,SSE,153,1.6,6.5,56,0.00,,,0.00,WUHU21523XXSP,2013-05-30 18:32:00,
2013-05-30 14:37:00,87.6,69.4,30.18,South,180,6.3,6.3,55,0.00,,,0.00,WUHU21523XXSP,2013-05-30 18:37:00,
2013-05-30 14:42:00,87.6,69.4,30.17,South,169,0.2,6.3,55,0.00,,,0.00,WUHU21523XXSP,2013-05-30 18:42:00,
2013-05-30 14:47:00,87.6,69.4,30.17,ENE,67,0.0,6.3,55,0.00,,,0.00,WUHU21523XXSP,2013-05-30 18:47:00,
2013-05-30 14:52:00,87.4,69.3,30.17,ENE,67,0.9,0.9,55,0.00,,,0.00,WUHU21523XXSP,2013-05-30 18:52:00,
2013-05-30 14:57:00,87.4,69.3,30.17,ENE,67,0.9,0.9,55,0.00,,,0.00,WUHU21523XXSP,2013-05-30 18:57:00,
2013-05-30 15:02:00,87.3,69.1,30.16,NE,45,2.7,2.7,55,0.00,,,0.00,WUHU21523XXSP,2013-05-30 19:02:00,
2013-05-30 15:07:00,87.3,69.1,30.16,South,180,1.8,2.7,55,0.00,,,0.00,WUHU21523XXSP,2013-05-30 19:07:00,
2013-05-30 15:12:00,87.1,68.9,30.16,East,90,0.0,2.0,55,0.00,,,0.00,WUHU21523XXSP,2013-05-30 19:12:00,
2013-05-30 15:17:00,87.1,68.9,30.16,West,270,2.0,2.0,55,0.00,,,0.00,WUHU21523XXSP,2013-05-30 19:17:00,
2013-05-30 15:22:00,87.1,68.9,30.16,SSW,202,4.7,4.7,55,0.00,,,0.00,WUHU21523XXSP,2013-05-30 19:22:00,
2013-05-30 15:27:00,87.1,68.9,30.16,WNW,292,3.1,4.7,55,0.00,,,0.00,WUHU21523XXSP,2013-05-30 19:27:00,
2013-05-30 15:32:00,87.1,68.4,30.16,SE,135,5.8,5.8,54,0.00,,,0.00,WUHU21523XXSP,2013-05-30 19:32:00,
2013-05-30 15:37:00,87.3,68.6,30.16,SW,225,0.0,5.8,54,0.00,,,0.00,WUHU21523XXSP,2013-05-30 19:37:00,
2013-05-30 15:42:00,87.4,68.7,30.16,ENE,74,1.3,3.4,54,0.00,,,0.00,WUHU21523XXSP,2013-05-30 19:42:00,
2013-05-30 15:47:00,87.4,68.2,30.16,SW,229,4.8,6.9,53,0.00,,,0.00,WUHU21523XXSP,2013-05-30 19:47:00,
2013-05-30 15:52:00,87.4,68.2,30.16,ENE,62,3.8,6.9,53,0.00,,,0.00,WUHU21523XXSP,2013-05-30 19:52:00,
2013-05-30 15:57:00,87.1,67.9,30.16,South,180,5.1,7.2,53,0.00,,,0.00,WUHU21523XXSP,2013-05-30 19:57:00,
2013-05-30 16:02:00,86.9,67.7,30.16,ENE,67,2.5,7.2,53,0.00,,,0.00,WUHU21523XXSP,2013-05-30 20:02:00,
2013-05-30 16:07:00,86.7,67.5,30.15,SSW,202,3.1,3.1,53,0.00,,,0.00,WUHU21523XXSP,2013-05-30 20:07:00,
2013-05-30 16:12:00,86.5,67.4,30.15,ENE,67,1.6,3.1,53,0.00,,,0.00,WUHU21523XXSP,2013-05-30 20:12:00,
2013-05-30 16:17:00,86.5,67.4,30.15,ESE,112,1.8,2.0,53,0.00,,,0.00,WUHU21523XXSP,2013-05-30 20:17:00,
2013-05-30 16:22:00,86.4,66.7,30.15,SSW,202,5.1,5.1,52,0.00,,,0.00,WUHU21523XXSP,2013-05-30 20:22:00,
2013-05-30 16:27:00,86.2,66.5,30.15,ENE,67,7.6,7.6,52,0.00,,,0.00,WUHU21523XXSP,2013-05-30 20:27:00,
2013-05-30 16:32:00,86.2,66.5,30.15,South,180,0.9,7.6,52,0.00,,,0.00,WUHU21523XXSP,2013-05-30 20:32:00,
2013-05-30 16:37:00,86.0,66.3,30.15,NE,45,7.2,7.2,52,0.00,,,0.00,WUHU21523XXSP,2013-05-30 20:37:00,
2013-05-30 16:42:00,85.8,66.2,30.16,North,9,2.1,7.2,52,0.00,,,0.00,WUHU21523XXSP,2013-05-30 20:42:00,
2013-05-30 16:47:00,85.8,65.7,30.15,ENE,67,1.7,7.2,51,0.00,,,0.00,WUHU21523XXSP,2013-05-30 20:47:00,
2013-05-30 16:52:00,85.5,65.9,30.15,West,270,1.3,2.2,52,0.00,,,0.00,WUHU21523XXSP,2013-05-30 20:52:00,
2013-05-30 16:57:00,85.3,65.7,30.15,SE,127,1.0,2.2,52,0.00,,,0.00,WUHU21523XXSP,2013-05-30 20:57:00,
2013-05-30 17:02:00,85.3,65.7,30.15,NE,45,2.5,2.5,52,0.00,,,0.00,WUHU21523XXSP,2013-05-30 21:02:00,
2013-05-30 17:07:00,85.1,65.5,30.15,SSW,202,1.6,7.4,52,0.00,,,0.00,WUHU21523XXSP,2013-05-30 21:07:00,
2013-05-30 17:12:00,85.3,65.7,30.15,SW,225,0.0,7.4,52,0.00,,,0.00,WUHU21523XXSP,2013-05-30 21:12:00,
2013-05-30 17:17:00,85.3,66.2,30.15,SW,216,4.3,5.1,53,0.00,,,0.00,WUHU21523XXSP,2013-05-30 21:17:00,
2013-05-30 17:22:00,85.3,66.7,30.15,ENE,67,0.0,5.1,54,0.00,,,0.00,WUHU21523XXSP,2013-05-30 21:22:00,
2013-05-30 17:27:00,84.9,66.4,30.15,NE,55,4.6,5.1,54,0.00,,,0.00,WUHU21523XXSP,2013-05-30 21:27:00,
2013-05-30 17:32:00,84.9,66.4,30.15,SE,135,0.9,5.1,54,0.00,,,0.00,WUHU21523XXSP,2013-05-30 21:32:00,
2013-05-30 17:37:00,84.7,66.3,30.15,ENE,67,0.7,0.9,54,0.00,,,0.00,WUHU21523XXSP,2013-05-30 21:37:00,
2013-05-30 17:42:00,84.7,66.3,30.15,North,0,0.0,0.7,54,0.00,,,0.00,WUHU21523XXSP,2013-05-30 21:42:00,
2013-05-30 17:47:00,84.6,65.6,30.15,West,270,1.1,1.1,53,0.00,,,0.00,WUHU21523XXSP,2013-05-30 21:47:00,
2013-05-30 17:52:00,84.4,65.9,30.15,South,189,6.2,7.8,54,0.00,,,0.00,WUHU21523XXSP,2013-05-30 21:52:00,
2013-05-30 17:57:00,84.4,65.9,30.15,South,180,5.4,7.8,54,0.00,,,0.00,WUHU21523XXSP,2013-05-30 21:57:00,
2013-05-30 18:02:00,84.2,66.3,30.15,SW,225,2.2,7.8,55,0.00,,,0.00,WUHU21523XXSP,2013-05-30 22:02:00,
2013-05-30 18:07:00,84.0,65.6,30.15,WNW,292,0.0,2.2,54,0.00,,,0.00,WUHU21523XXSP,2013-05-30 22:07:00,
2013-05-30 18:12:00,84.0,66.1,30.15,West,270,0.0,0.0,55,0.00,,,0.00,WUHU21523XXSP,2013-05-30 22:12:00,
2013-05-30 18:17:00,83.8,65.9,30.15,ENE,67,0.0,4.5,55,0.00,,,0.00,WUHU21523XXSP,2013-05-30 22:17:00,
2013-05-30 18:22:00,83.5,65.6,30.14,ENE,67,7.4,7.4,55,0.00,,,0.00,WUHU21523XXSP,2013-05-30 22:22:00,
2013-05-30 18:27:00,83.5,65.6,30.15,WNW,292,0.0,7.4,55,0.00,,,0.00,WUHU21523XXSP,2013-05-30 22:27:00,
2013-05-30 18:32:00,83.5,65.6,30.15,SW,225,2.0,2.0,55,0.00,,,0.00,WUHU21523XXSP,2013-05-30 22:32:00,
2013-05-30 18:37:00,83.1,65.2,30.14,South,180,0.0,2.0,55,0.00,,,0.00,WUHU21523XXSP,2013-05-30 22:37:00,
2013-05-30 18:42:00,83.1,65.7,30.15,ENE,67,0.9,2.7,56,0.00,,,0.00,WUHU21523XXSP,2013-05-30 22:42:00,
2013-05-30 18:47:00,82.8,64.8,30.15,East,90,0.7,2.7,55,0.00,,,0.00,WUHU21523XXSP,2013-05-30 22:47:00,
2013-05-30 18:52:00,82.6,65.2,30.15,ESE,119,1.2,2.5,56,0.00,,,0.00,WUHU21523XXSP,2013-05-30 22:52:00,
2013-05-30 18:57:00,82.4,65.2,30.15,SSE,157,2.5,2.5,56,0.00,,,0.00,WUHU21523XXSP,2013-05-30 22:57:00,
2013-05-30 19:02:00,82.2,64.8,30.15,WSW,247,0.0,2.5,56,0.00,,,0.00,WUHU21523XXSP,2013-05-30 23:02:00,
2013-05-30 19:07:00,82.0,65.2,30.15,WSW,247,3.1,3.1,57,0.00,,,0.00,WUHU21523XXSP,2013-05-30 23:07:00,
2013-05-30 19:12:00,81.9,64.5,30.15,ENE,67,2.0,3.1,56,0.00,,,0.00,WUHU21523XXSP,2013-05-30 23:12:00,
2013-05-30 19:17:00,81.7,64.4,30.15,ENE,67,2.1,3.1,56,0.00,,,0.00,WUHU21523XXSP,2013-05-30 23:17:00,
2013-05-30 19:22:00,81.5,64.7,30.16,SW,225,0.0,2.2,57,0.00,,,0.00,WUHU21523XXSP,2013-05-30 23:22:00,
2013-05-30 19:27:00,81.3,64.6,30.15,SSW,202,0.0,0.0,57,0.00,,,0.00,WUHU21523XXSP,2013-05-30 23:27:00,
2013-05-30 19:32:00,81.1,64.4,30.16,SSW,202,0.0,2.2,57,0.00,,,0.00,WUHU21523XXSP,2013-05-30 23:32:00,
2013-05-30 19:37:00,81.1,64.9,30.15,ENE,67,1.8,2.2,58,0.00,,,0.00,WUHU21523XXSP,2013-05-30 23:37:00,
2013-05-30 19:42:00,81.0,64.8,30.15,NE,45,0.0,1.8,58,0.00,,,0.00,WUHU21523XXSP,2013-05-30 23:42:00,
2013-05-30 19:47:00,80.8,65.1,30.15,South,180,0.0,0.0,59,0.00,,,0.00,WUHU21523XXSP,2013-05-30 23:47:00,
2013-05-30 19:52:00,80.6,65.1,30.15,SSW,202,1.3,1.3,59,0.00,,,0.00,WUHU21523XXSP,2013-05-30 23:52:00,
2013-05-30 19:57:00,80.4,64.8,30.15,SSW,202,1.3,1.3,59,0.00,,,0.00,WUHU21523XXSP,2013-05-30 23:57:00,
2013-05-30 20:02:00,80.4,64.8,30.15,South,180,0.0,1.3,59,0.00,,,0.00,WUHU21523XXSP,2013-05-31 00:02:00,
2013-05-30 20:07:00,80.2,65.2,30.15,SSE,157,0.0,0.0,60,0.00,,,0.00,WUHU21523XXSP,2013-05-31 00:07:00,
2013-05-30 20:12:00,80.1,65.0,30.16,SSW,202,2.2,2.2,60,0.00,,,0.00,WUHU21523XXSP,2013-05-31 00:12:00,
2013-05-30 20:17:00,79.9,64.8,30.16,NE,45,3.1,3.1,60,0.00,,,0.00,WUHU21523XXSP,2013-05-31 00:17:00,
2013-05-30 20:22:00,79.5,64.5,30.15,ENE,67,0.0,3.1,60,0.00,,,0.00,WUHU21523XXSP,2013-05-31 00:22:00,
2013-05-30 20:27:00,79.3,64.8,30.15,East,90,0.0,0.4,61,0.00,,,0.00,WUHU21523XXSP,2013-05-31 00:27:00,
2013-05-30 20:32:00,79.0,64.5,30.15,SSE,157,0.0,0.0,61,0.00,,,0.00,WUHU21523XXSP,2013-05-31 00:32:00,
2013-05-30 20:37:00,79.0,64.5,30.16,NNE,22,1.8,1.8,61,0.00,,,0.00,WUHU21523XXSP,2013-05-31 00:37:00,
2013-05-30 20:42:00,78.6,64.1,30.16,ENE,67,1.1,1.8,61,0.00,,,0.00,WUHU21523XXSP,2013-05-31 00:42:00,
2013-05-30 20:47:00,78.6,64.1,30.16,ESE,112,0.0,1.1,61,0.00,,,0.00,WUHU21523XXSP,2013-05-31 00:47:00,
2013-05-30 20:52:00,78.4,63.9,30.15,SSW,202,3.8,3.8,61,0.00,,,0.00,WUHU21523XXSP,2013-05-31 00:52:00,
2013-05-30 20:57:00,78.4,63.9,30.16,South,180,2.0,3.8,61,0.00,,,0.00,WUHU21523XXSP,2013-05-31 00:57:00,
2013-05-30 21:02:00,78.1,63.6,30.16,ENE,67,1.6,2.0,61,0.00,,,0.00,WUHU21523XXSP,2013-05-31 01:02:00,
2013-05-30 21:07:00,77.9,63.4,30.15,SW,225,1.1,1.6,61,0.00,,,0.00,WUHU21523XXSP,2013-05-31 01:07:00,
2013-05-30 21:12:00,77.7,63.2,30.16,ENE,67,3.1,3.1,61,0.00,,,0.00,WUHU21523XXSP,2013-05-31 01:12:00,
2013-05-30 21:17:00,77.7,63.2,30.16,SE,135,0.0,3.1,61,0.00,,,0.00,WUHU21523XXSP,2013-05-31 01:17:00,
2013-05-30 21:22:00,77.5,63.0,30.15,SE,135,0.0,0.0,61,0.00,,,0.00,WUHU21523XXSP,2013-05-31 01:22:00,
2013-05-30 21:27:00,77.5,63.0,30.16,WSW,247,0.0,0.7,61,0.00,,,0.00,WUHU21523XXSP,2013-05-31 01:27:00,
2013-05-30 21:32:00,77.4,63.3,30.16,WSW,247,0.0,0.7,62,0.00,,,0.00,WUHU21523XXSP,2013-05-31 01:32:00,
2013-05-30 21:37:00,77.2,62.7,30.16,WSW,247,0.0,0.0,61,0.00,,,0.00,WUHU21523XXSP,2013-05-31 01:37:00,
2013-05-30 21:42:00,77.2,62.7,30.16,WSW,247,0.0,0.0,61,0.00,,,0.00,WUHU21523XXSP,2013-05-31 01:42:00,
2013-05-30 21:47:00,76.8,62.3,30.17,WSW,247,0.0,0.0,61,0.00,,,0.00,WUHU21523XXSP,2013-05-31 01:47:00,
2013-05-30 21:52:00,76.8,62.8,30.17,WSW,247,0.0,0.0,62,0.00,,,0.00,WUHU21523XXSP,2013-05-31 01:52:00,
2013-05-30 21:57:00,76.6,62.6,30.17,WSW,247,0.0,0.0,62,0.00,,,0.00,WUHU21523XXSP,2013-05-31 01:57:00,
2013-05-30 22:02:00,76.3,62.3,30.17,WSW,247,0.0,0.0,62,0.00,,,0.00,WUHU21523XXSP,2013-05-31 02:02:00,
2013-05-30 22:07:00,76.1,62.6,30.17,WSW,247,0.0,0.0,63,0.00,,,0.00,WUHU21523XXSP,2013-05-31 02:07:00,
2013-05-30 22:12:00,75.9,62.4,30.18,WSW,247,0.0,0.0,63,0.00,,,0.00,WUHU21523XXSP,2013-05-31 02:12:00,
2013-05-30 22:17:00,75.7,62.2,30.18,WSW,247,0.0,0.0,63,0.00,,,0.00,WUHU21523XXSP,2013-05-31 02:17:00,
2013-05-30 22:22:00,75.6,62.5,30.18,WSW,247,0.0,0.0,64,0.00,,,0.00,WUHU21523XXSP,2013-05-31 02:22:00,
2013-05-30 22:27:00,75.4,62.3,30.18,WSW,247,0.0,0.0,64,0.00,,,0.00,WUHU21523XXSP,2013-05-31 02:27:00,
2013-05-30 22:32:00,75.0,62.0,30.18,WSW,247,0.0,0.0,64,0.00,,,0.00,WUHU21523XXSP,2013-05-31 02:32:00,
2013-05-30 22:37:00,74.8,62.3,30.18,WSW,247,0.0,0.0,65,0.00,,,0.00,WUHU21523XXSP,2013-05-31 02:37:00,
2013-05-30 22:42:00,74.7,62.1,30.18,WSW,247,0.0,0.0,65,0.00,,,0.00,WUHU21523XXSP,2013-05-31 02:42:00,
2013-05-30 22:47:00,74.5,61.9,30.18,WSW,247,0.0,0.0,65,0.00,,,0.00,WUHU21523XXSP,2013-05-31 02:47:00,
2013-05-30 22:52:00,74.3,61.7,30.18,WSW,247,0.0,0.0,65,0.00,,,0.00,WUHU21523XXSP,2013-05-31 02:52:00,
2013-05-30 22:57:00,74.1,62.0,30.19,WSW,247,0.0,0.0,66,0.00,,,0.00,WUHU21523XXSP,2013-05-31 02:57:00,
2013-05-30 23:02:00,73.9,61.8,30.18,WSW,247,0.0,0.0,66,0.00,,,0.00,WUHU21523XXSP,2013-05-31 03:02:00,
2013-05-30 23:07:00,73.8,62.1,30.18,WSW,247,0.0,0.0,67,0.00,,,0.00,WUHU21523XXSP,2013-05-31 03:07:00,
2013-05-30 23:12:00,73.6,62.0,30.18,WSW,247,0.0,0.0,67,0.00,,,0.00,WUHU21523XXSP,2013-05-31 03:12:00,
2013-05-30 23:17:00,73.6,62.0,30.18,WSW,247,0.0,0.0,67,0.00,,,0.00,WUHU21523XXSP,2013-05-31 03:17:00,
2013-05-30 23:22:00,73.4,61.8,30.18,WSW,247,0.0,0.0,67,0.00,,,0.00,WUHU21523XXSP,2013-05-31 03:22:00,
2013-05-30 23:27:00,73.2,61.6,30.18,WSW,247,0.0,0.0,67,0.00,,,0.00,WUHU21523XXSP,2013-05-31 03:27:00,
2013-05-30 23:32:00,73.2,61.6,30.18,WSW,247,0.0,0.0,67,0.00,,,0.00,WUHU21523XXSP,2013-05-31 03:32:00,
2013-05-30 23:37:00,73.0,61.9,30.18,WSW,247,0.0,0.0,68,0.00,,,0.00,WUHU21523XXSP,2013-05-31 03:37:00,
2013-05-30 23:42:00,72.9,61.7,30.18,WSW,247,0.0,0.0,68,0.00,,,0.00,WUHU21523XXSP,2013-05-31 03:42:00,
2013-05-30 23:47:00,72.7,61.5,30.18,WSW,247,0.0,0.0,68,0.00,,,0.00,WUHU21523XXSP,2013-05-31 03:47:00,
2013-05-30 23:52:00,72.7,61.5,30.18,WSW,247,0.0,0.0,68,0.00,,,0.00,WUHU21523XXSP,2013-05-31 03:52:00,
2013-05-30 23:57:00,72.7,61.5,30.18,WSW,247,0.0,0.0,68,0.00,,,0.00,WUHU21523XXSP,2013-05-31 03:57:00,